Home   Weather   Coimbra   Past weeks

Flag for Portugal Past Weather in Coimbra, Portugal — Yesterday and Last 2 Weeks

Now
55 °F

Clear.


Feels Like: 52 °F
Forecast: N/A
Wind: 12 mph from Southeast

Location: Porto / Pedras Rubras

Current Time: Dec 9, 2016 at 7:38:12 pm

Latest Report: Dec 9, 2016 at 7:00 pm


Visibility: 10 mi

Pressure: 30.33 "Hg

Humidity: 72%

Dew Point: 46 °F

Location of CoimbraLocation

Past Weather in Coimbra — Graph

°F

Coimbra Temperature Yesterday

Maximum temperature yesterday: 64 °F (at 2:30 pm)
Minimum temperature yesterday: 52 °F (at 6:00 am)
Average temperature yesterday: 56 °F

High & Low Weather Summary for the Past Weeks

 TemperatureHumidityPressure
High70 °F (Dec 4, 2:30 pm)100% (Nov 24, 8:30 pm)30.39 "Hg (Nov 24, 8:30 pm)
Low41 °F (Nov 28, 7:30 am)52% (Dec 8, 2:30 pm)29.50 "Hg (Nov 24, 7:30 pm)
Average56 °F74%29.98 "Hg
* Reported Nov 24 6:00 pm — Dec 9 6:30 pm, Coimbra, Weather by CustomWeather, © 2016

Note: Actual official high and low records may vary slightly from our data, if they occured in-between our weather recording intervals... More about our weather records

Advertising

Coimbra Weather History for the Previous 24 Hours

Scroll right to see more
 ConditionsComfort  
Time TempWeatherWind HumidityBarometerVisibility
6:30 pm
Fri, Dec 9
57 °FClear.12 mph67%30.33 "Hg10 mi
6:00 pm57 °FClear.12 mph67%30.30 "Hg10 mi
5:30 pm59 °FClear.12 mph63%30.30 "Hg10 mi
5:00 pm59 °FSunny.9 mph63%30.30 "Hg10 mi
4:30 pm61 °FSunny.10 mph59%30.30 "Hg10 mi
4:00 pm63 °FSunny.10 mph56%30.30 "Hg10 mi
3:30 pm63 °FPassing clouds.12 mph56%30.30 "HgN/A
3:00 pm63 °FSunny.13 mph56%30.30 "Hg10 mi
2:30 pm63 °FSunny.15 mph56%30.30 "Hg10 mi
2:00 pm63 °FPassing clouds.13 mph56%30.33 "HgN/A
1:30 pm63 °FSunny.15 mph56%30.33 "Hg10 mi
1:00 pm63 °FSunny.15 mph56%30.33 "Hg10 mi
12:30 pm61 °FSunny.15 mph55%30.36 "Hg10 mi
12:00 pm61 °FSunny.16 mph55%30.36 "Hg10 mi
11:30 am59 °FSunny.15 mph63%30.36 "Hg10 mi
11:00 am59 °FSunny.15 mph59%30.36 "Hg10 mi
10:30 am57 °FSunny.15 mph63%30.36 "Hg10 mi
10:00 am57 °FSunny.15 mph63%30.36 "Hg10 mi
9:30 am54 °FSunny.12 mph67%30.36 "Hg10 mi
9:00 am54 °FSunny.12 mph67%30.36 "Hg10 mi
8:30 am52 °FPassing clouds.10 mph72%30.36 "HgN/A
8:00 am52 °FSunny.13 mph72%30.36 "Hg10 mi
7:30 am52 °FClear.14 mph72%30.36 "Hg10 mi
7:00 am52 °FClear.14 mph72%30.36 "Hg10 mi
6:30 am52 °FClear.14 mph72%30.33 "Hg10 mi
6:00 am52 °FClear.15 mph72%30.33 "Hg10 mi
5:30 am52 °FClear.14 mph72%30.33 "Hg10 mi
4:30 am52 °FClear.15 mph72%30.33 "Hg10 mi
4:00 am52 °FClear.14 mph72%30.33 "Hg10 mi
3:30 am52 °FClear.13 mph72%30.36 "Hg10 mi
3:00 am52 °FClear.13 mph72%30.36 "Hg10 mi
2:30 am52 °FClear.13 mph72%30.36 "Hg10 mi
2:00 am52 °FClear.12 mph72%30.36 "Hg10 mi
1:30 am52 °FClear.12 mph72%30.36 "Hg10 mi
1:00 am52 °FClear.14 mph72%30.36 "Hg10 mi
12:30 am52 °FClear.13 mph72%30.36 "Hg10 mi
12:00 am52 °FClear.13 mph72%30.36 "Hg10 mi
11:30 pm
Thu, Dec 8
52 °FClear.13 mph72%30.39 "Hg10 mi
11:00 pm52 °FClear.13 mph72%30.39 "Hg10 mi
10:30 pm52 °FPassing clouds.10 mph72%30.39 "HgN/A
10:00 pm54 °FClear.13 mph67%30.39 "Hg10 mi
9:30 pm54 °FPassing clouds.12 mph67%30.39 "HgN/A
9:00 pm54 °FClear.12 mph67%30.39 "Hg10 mi
8:30 pm54 °FClear.12 mph67%30.39 "Hg10 mi
8:00 pm54 °FClear.10 mph67%30.36 "Hg10 mi
7:30 pm55 °FClear.10 mph63%30.36 "Hg10 mi
7:00 pm55 °FClear.9 mph67%30.36 "Hg10 mi
Weather by CustomWeather, © 2016

See weather overviewHow to use our weather pages